Overview Statistics Trail Chart Weather Telemetry Raw packets
 

This is the latest recevied weather packets stored in our database for station/object KD8DNS. If no packets are shown the sender has not sent any weather packets the latest 10 day(s).

<< 65 66 67 68 69 70 71 >>
Time Temp. Humidity Pressure Rain* Wind** Luminosity Snow
1788215365 30° C 76% 1019.5 hPa 0 mm - 35 W/m² -
1788215068 30° C 75% 1019.5 hPa 0 mm - 41 W/m² -
1788214755 30° C 74% 1019.8 hPa 0 mm - 46 W/m² -
1788214451 30.56° C 72% 1020 hPa 0 mm - 52 W/m² -
1788214159 30.56° C 72% 1020.1 hPa 0 mm - 60 W/m² -
1788213841 30.56° C 72% 1020.1 hPa 0 mm - 78 W/m² -
1788213536 30.56° C 70% 1020.1 hPa 0 mm - 98 W/m² -
1788213226 30.56° C 69% 1019.9 hPa 0 mm - 87 W/m² -
1788212922 30.56° C 68% 1020.3 hPa 0 mm - 69 W/m² -
1788212619 30.56° C 67% 1020.2 hPa 0 mm - 64 W/m² -
1788212314 31.11° C 66% 1020.1 hPa 0 mm - 65 W/m² -
1788212011 31.11° C 65% 1020.3 hPa 0 mm - 69 W/m² -
1788211705 31.67° C 66% 1020.5 hPa 0 mm - 109 W/m² -
1788211402 31.67° C 65% 1020.6 hPa 0 mm - 144 W/m² -
1788211100 31.67° C 64% 1020.8 hPa 0 mm - 134 W/m² -
1788210796 31.67° C 64% 1020.9 hPa 0 mm - 133 W/m² -
1788210490 31.67° C 63% 1021 hPa 0 mm - 141 W/m² -
1788210187 31.67° C 62% 1020.9 hPa 0 mm - 142 W/m² -
1788209886 32.22° C 62% 1021 hPa 0 mm - 138 W/m² -
1788209582 32.78° C 63% 1020.8 hPa 0 mm - 176 W/m² -
1788209276 32.22° C 62% 1021.1 hPa 0 mm - 200 W/m² -
1788208975 32.78° C 63% 1021 hPa 0 mm - 214 W/m² -
1788208675 32.22° C 62% 1021 hPa 0 mm - 241 W/m² -
1788208369 32.22° C 63% 1021.1 hPa 0 mm - 261 W/m² -
1788208068 32.22° C 62% 1021.6 hPa 0 mm - 236 W/m² -

* Rain latest hour (hover to see other rain measurements)
** Current wind speed in m/s (hover to see current wind gust speed)